STARLINK-31626, 59392

Orbit data source: Space-Track

STARLINK-31626, 59392 is a payload satellite owned by SpaceX/Seattle (US) in LEO that was launched on Tue, 02 Apr 2024 UTC via an FALCON 9 launch vehicle from the Air Force Western Test Range (AFWTR). Payload-class satellites include a variety of spacecraft equipped with specific instruments for various scientific and technological missions. These include communications satellites like Starlink; space stations such as the ISS; scientific satellites like the Hubble; Earth observation satellites from companies like Planet Labs, Umbra, and HawkEye 360; GPS; miniature CubeSats for education and research; and military/defense satellites.

Loading next visibility...
Identifier
59392, 2024-062U
Orbit
LEO
Country
Flag of USUS
Related business
Manufacturer
SpaceX/Seattle
Mission
Operational Commercial Communications
Bus & Motor
STARLINK V2M, Unknown motor
Mass
730 kg wet, ~700 kg dry
Launch date (UTC)
2024-04-02 (2 years ago)
Launch vehicle
FALCON 9
Launch site
Air Force Western Test Range (AFWTR)
Object type
Payload
Rocket body
Debris
Shape & HBR
Box + 2 Pan, 17.7 m
Radar Cross Section
33.884 m², Large (>1 m²)

Expand to show TLE details & history
Last TLE update: 2 days ago

TLE from 2 days ago
0 STARLINK-31626
1 59392U 24062U   26171.41668980  .00057380  00000-0  17014-2 0  9999
2 59392  53.1602 138.3035 0000787  50.3221 259.1085 15.34308290  5892
Epoch: 2026-06-20T10:00Z
TLE epoch observation values (Epoch: 2026-06-20T10:00:01.998Z)
Latitude
-38.39415°
Longitude
43.47919°
Altitude
475.586 km
Speed
7.628 km/s
True Right ascension
06h 48m 28s
True Declination
-38° 13' 12"
Sunlit
Object was in daylight at epoch
Visualization orbit readout
Latitude
Unknown
Longitude
Unknown
Altitude
Unknown
Speed
Unknown
Apparent Right ascension
Unknown
Apparent Declination
Unknown
Sunlit
N/A
Visualization observer readout
Local Sidereal Time
21:30:17
Azimuth
Unknown
Elevation
Unknown
Doppler factor
Unknown
Orbital elements
Apogee altitude
463.771 km
Perigee altitude
462.694 km
Semi-major axis
6,841.37 km
Eccentricity
0.00008
Inclination
53.1602°
RAAN
138.3035°
Arg. of periapsis
50.3221°
True anomaly
259.09964°
Mean anomaly
259.1085°
Eccentric anomaly
259.10407°
Mean motion
3.83556 °/min
Orbital period
93.86 mins
BSTAR
0.0017014
Loading maneuver chart data...
Computing Atmospheric mass density...
Loading historical data...
Loading historical data...
Loading historical data...
Loading historical data...
Loading historical data...
Loading historical data...
Loading historical data...

Documentation

Showing up to 5 results
|